DMSP 5D-2 F13 DEB, 40415

Orbit data source: Space-Track

DMSP 5D-2 F13 DEB, 40415 is space debris in SSO originally from a launch on Fri, 24 Mar 1995 UTC launched from the Air Force Western Test Range (AFWTR). Debris objects in space refer to the collection of defunct objects orbiting the Earth. Examples of debris include non-operational satellites, rocket bodies, and fragments generated from explosions, collisions, or faulty payload assembly.

Loading next visibility...
DMSP 5D-2 F13 DEB details
Identifier
40415, 1995-015AC
Orbit
SSO
Last TLE update11 hours ago
Origin
Flag of USUSAF SMC (US)
ManufacturerUnknown
MissionSpacecraft
Bus & MotorUnknown
MassUnknown
Launch date (UTC)
1995-03-24 (30 years ago)
Launch vehicleUnknown
Launch site
Air Force Western Test Range (AFWTR)
Object type
Payload
Rocket body
Debris
Shape & HBRUnknown
Radar Cross SectionSmall (<0.1 m²)

Expand to show TLE details & history

TLE from 11 hours ago
0 DMSP 5D-2 F13 DEB
1 40415U 95015AC  25037.58470206  .00004448  00000-0  18624-2 0  9996
2 40415  98.7576  59.5761 0004950 345.8064  14.2976 14.26533742517413
Epoch: 2025-02-06T14:01Z
Definitive object data (Epoch: 2025-02-06T14:01:58.257Z)
Latitude-0.00006°
Longitude72.12419°
Altitude802.817 km
Speed7.454 km/s
True Right ascension03h 58m 18s
True Declination0° 00' 00"
Sunlit
Object was in daylight at TLE epoch
Visualization TLE readout
Latitude-35.16306°
Longitude-113.61°
Altitude818.831 km
Speed7.441 km/s
Apparent Right ascension15h 27m 17s
Apparent Declination-37° 14' 32"
Sunlit
Object is in daylight
Visualization observer readout
Local Sidereal Time03:17:34
Azimuth323.86° NNW
Elevation-86.721°
Doppler factor1
Orbital elements
Apogee altitude804.046 km
Perigee altitude796.939 km
Semi-major axis7,178.63 km
Eccentricity0.000495
Inclination98.7576°
RAAN59.5761°
Arg. of periapsis345.8064°
True anomaly14.31162°
Mean anomaly14.2976°
Eccentric anomaly14.30461°
Mean motion3.56846 °/min
BSTAR0.0018624
Orbital period100.88 mins
Loading maneuver chart data...

DMSP 5D-2 F13 DEB Visibility forecast

Observer location: undefined°, undefined

Span
Click to sort rows by Start time (UTC) header in descending order
Start Az.
Max El. time (UTC)
Max El. Az.
Max El.
End time (UTC)
End Az.
9 mins2025-02-07 01:55:23.151Z194.659° SSW2025-02-07 01:59:23.151Z247.768° W31.755°2025-02-07 02:04:23.151Z328.681° NNW
9 mins2025-02-07 14:11:23.151Z17.117° NNE2025-02-07 14:15:23.151Z142.283° SSE44.425°2025-02-07 14:20:23.151Z191.33° SSW
4 mins2025-02-07 23:53:23.151Z81.879° E2025-02-07 23:55:23.151Z56.124° ENE14.794°2025-02-07 23:57:23.151Z32.075° NE
|